This is the latest recevied weather packets stored in our database for station/object N2XP-3. If no packets are shown the sender has not sent any weather packets the latest 1 day(s).
| Time | Temp. | Humidity | Pressure | Rain* | Wind** | Luminosity | Snow |
|---|---|---|---|---|---|---|---|
| 1778045714 | 16.67° C | 76% | 1007.5 hPa | 0 mm | 0 m/s | - | - |
| 1778044547 | 16.67° C | 75% | 1007.6 hPa | 0 mm | 0.45 m/s, 252° | - | - |
| 1778043898 | 17.22° C | 75% | 1007.7 hPa | 0 mm | 0.45 m/s, 204° | - | - |
| 1778043597 | 17.22° C | 75% | 1007.7 hPa | 0 mm | 0.89 m/s, 253° | - | - |
| 1778043297 | 17.22° C | 74% | 1007.7 hPa | 0 mm | 0.89 m/s, 276° | - | - |
| 1778042988 | 17.22° C | 74% | 1007.8 hPa | 0 mm | 0 m/s | - | - |
| 1778042148 | 17.22° C | 73% | 1007.8 hPa | 0 mm | 0.45 m/s, 256° | - | - |
| 1778041780 | 17.78° C | 73% | 1007.8 hPa | 0 mm | 0.89 m/s, 287° | - | - |
| 1778041673 | 17.78° C | 73% | 1007.8 hPa | 0 mm | 0.45 m/s, 219° | - | - |
| 1778040853 | 17.78° C | 72% | 1007.8 hPa | 0 mm | 0 m/s | - | - |
| 1778040250 | 17.78° C | 71% | 1007.8 hPa | 0 mm | 0.89 m/s, 249° | - | - |
| 1778039950 | 18.33° C | 71% | 1007.8 hPa | 0 mm | 1.79 m/s, 281° | - | - |
| 1778039640 | 17.78° C | 71% | 1007.8 hPa | 0 mm | 1.34 m/s, 236° | - | - |
| 1778039335 | 17.78° C | 70% | 1007.8 hPa | 0 mm | 0 m/s | - | - |
| 1778038736 | 17.78° C | 70% | 1007.8 hPa | 0 mm | 1.79 m/s, 262° | - | - |
| 1778037824 | 18.33° C | 69% | 1007.8 hPa | 0 mm | 0.89 m/s, 270° | - | - |
| 1778037217 | 18.33° C | 68% | 1007.8 hPa | 0 mm | 1.79 m/s, 243° | - | - |
| 1778036918 | 18.33° C | 67% | 1007.8 hPa | 0 mm | 2.24 m/s, 215° | - | - |
| 1778036657 | 18.33° C | 66% | 1007.8 hPa | 0 mm | 0.89 m/s, 297° | - | - |
| 1778036615 | 18.33° C | 66% | 1007.8 hPa | 0 mm | 0.89 m/s, 297° | - | - |
| 1778036315 | 18.89° C | 65% | 1007.8 hPa | 0 mm | 1.79 m/s, 300° | - | - |
| 1778036016 | 18.89° C | 65% | 1007.8 hPa | 0 mm | 0.89 m/s, 246° | - | - |
| 1778035712 | 18.89° C | 64% | 1007.8 hPa | 0 mm | 1.34 m/s, 270° | - | - |
| 1778035405 | 18.89° C | 63% | 1007.7 hPa | 0 mm | 0.89 m/s, 326° | - | - |
| 1778035289 | 18.89° C | 63% | 1007.7 hPa | 0 mm | 1.34 m/s, 246° | - | - |
* Rain latest hour (hover to see other rain measurements)
** Current wind speed in m/s (hover to see current wind gust speed)